EW8926 Weather Reports


Display with metric or nautical units.
time (UTC)temp
F
wind
direction
speed
MPH
gust
MPH
rain 1hr
in
rain 24hr
in
rain mn
in
humidity
%
barometer
mb
20260904135604 94 113 5.0 15.0 0.00 0.00 0.00 28 1018.5
20260904135104 94 182 5.0 7.0 0.00 0.00 0.00 28 1018.4
20260904133604 95 129 3.0 10.0 0.00 0.00 0.00 29 1018.5
20260904133104 94 122 5.0 8.0 0.00 0.00 0.00 29 1018.5
20260904132604 94 135 5.0 7.0 0.00 0.00 0.00 29 1018.5
20260904132104 94 120 6.0 9.0 0.00 0.00 0.00 28 1018.6
20260904131606 94 126 6.0 9.0 0.00 0.00 0.00 29 1018.6
20260904131104 94 143 5.0 12.0 0.00 0.00 0.00 29 1018.6
20260904130604 94 126 5.0 12.0 0.00 0.00 0.00 28 1018.7
20260904130104 94 116 7.0 13.0 0.00 0.00 0.00 29 1018.7
20260904125604 94 122 7.0 10.0 0.00 0.00 0.00 29 1018.7
20260904125104 94 123 6.0 10.0 0.00 0.00 0.00 30 1018.8
20260904124604 94 93 6.0 14.0 0.00 0.00 0.00 29 1018.8
20260904123604 94 160 7.0 9.0 0.00 0.00 0.00 31 1018.8
20260904123105 94 135 6.0 13.0 0.00 0.00 0.00 31 1018.8
20260904122604 94 111 6.0 15.0 0.00 0.00 0.00 31 1018.8
20260904122104 94 123 5.0 13.0 0.00 0.00 0.00 32 1018.9
20260904121604 94 124 5.0 9.0 0.00 0.00 0.00 34 1018.9
20260904121104 94 133 3.0 17.0 0.00 0.00 0.00 38 1018.9
20260904120104 93 47 2.0 6.0 0.00 0.00 0.00 38 1019.3
20260904115604 93 347 2.0 5.0 0.00 0.00 0.00 40 1019.3
20260904115104 93 95 2.0 6.0 0.00 0.00 0.00 39 1019.4
20260904114604 92 310 2.0 5.0 0.00 0.00 0.00 40 1019.4
20260904114104 92 304 2.0 5.0 0.00 0.00 0.00 40 1019.4
20260904113604 92 304 2.0 5.0 0.00 0.00 0.00 40 1019.6
20260904113104 92 272 2.0 5.0 0.00 0.00 0.00 40 1019.6
20260904112604 92 204 2.0 5.0 0.00 0.00 0.00 40 1019.6
20260904112104 92 358 2.0 6.0 0.00 0.00 0.00 40 1019.7
20260904111604 92 298 2.0 5.0 0.00 0.00 0.00 41 1019.7
20260904111104 92 118 2.0 3.0 0.00 0.00 0.00 41 1019.7
20260904110605 91 252 2.0 3.0 0.00 0.00 0.00 41 1019.9
20260904110104 91 298 2.0 7.0 0.00 0.00 0.00 41 1019.9
20260904105604 91 135 2.0 6.0 0.00 0.00 0.00 41 1019.9
20260904105104 90 17 2.0 3.0 0.00 0.00 0.00 42 1020.0
20260904104604 90 292 2.0 5.0 0.00 0.00 0.00 44 1020.0
20260904103604 89 356 2.0 5.0 0.00 0.00 0.00 43 1020.3
20260904103104 89 282 2.0 5.0 0.00 0.00 0.00 42 1020.3
20260904102104 89 292 2.0 3.0 0.00 0.00 0.00 43 1020.4
20260904101604 89 22 2.0 5.0 0.00 0.00 0.00 43 1020.4
20260904101104 89 329 2.0 3.0 0.00 0.00 0.00 43 1020.4
20260904100604 89 339 2.0 5.0 0.00 0.00 0.00 43 1020.6
20260904100104 89 338 2.0 5.0 0.00 0.00 0.00 43 1020.6
20260904095604 89 327 2.0 3.0 0.00 0.00 0.00 44 1020.6
20260904095104 88 24 2.0 3.0 0.00 0.00 0.00 44 1020.7
20260904094104 88 284 2.0 5.0 0.00 0.00 0.00 45 1020.7
20260904093604 88 357 2.0 3.0 0.00 0.00 0.00 45 1020.8
20260904093104 87 44 2.0 5.0 0.00 0.00 0.00 45 1020.8
20260904092604 87 83 2.0 2.0 0.00 0.00 0.00 46 1020.8
20260904092104 87 87 2.0 5.0 0.00 0.00 0.00 46 1020.8
20260904091104 86 158 2.0 3.0 0.00 0.00 0.00 48 1020.8
20260904090604 86 268 2.0 3.0 0.00 0.00 0.00 48 1020.9
20260904090104 86 148 2.0 2.0 0.00 0.00 0.00 49 1020.9
20260904085104 85 123 2.0 5.0 0.00 0.00 0.00 50 1020.9
20260904084604 85 137 2.0 3.0 0.00 0.00 0.00 50 1020.9
20260904084104 84 277 2.0 2.0 0.00 0.00 0.00 51 1020.9
20260904083604 84 125 2.0 5.0 0.00 0.00 0.00 52 1020.9
20260904083104 84 218 2.0 5.0 0.00 0.00 0.00 52 1020.9
20260904082604 83 204 2.0 5.0 0.00 0.00 0.00 52 1020.9
20260904081104 82 149 2.0 3.0 0.00 0.00 0.00 53 1021.0
20260904080604 82 307 2.0 3.0 0.00 0.00 0.00 54 1021.1
20260904080104 82 129 1.0 3.0 0.00 0.00 0.00 54 1021.1
20260904075604 82 238 1.0 3.0 0.00 0.00 0.00 55 1021.1
20260904075108 81 306 2.0 2.0 0.00 0.00 0.00 55 1020.9
20260904074605 81 307 2.0 3.0 0.00 0.00 0.00 55 1020.9
20260904073604 81 126 1.0 5.0 0.00 0.00 0.00 55 1020.9
20260904073104 81 297 1.0 2.0 0.00 0.00 0.00 56 1020.9
20260904072604 80 295 1.0 2.0 0.00 0.00 0.00 58 1020.9
20260904072104 80 295 0.0 5.0 0.00 0.00 0.00 58 1021.0
20260904071604 79 205 0.0 2.0 0.00 0.00 0.00 60 1021.0
20260904071106 79 132 2.0 2.0 0.00 0.00 0.00 62 1021.0
20260904070604 78 132 2.0 2.0 0.00 0.00 0.00 63 1020.9
20260904065604 77 130 0.0 2.0 0.00 0.00 0.00 66 1020.9
20260904065104 76 137 2.0 2.0 0.00 0.00 0.00 67 1020.8
20260904064603 75 136 2.0 2.0 0.00 0.00 0.00 69 1020.8
20260904064104 73 136 1.0 2.0 0.00 0.00 0.00 71 1020.8
20260904063604 72 136 1.0 2.0 0.00 0.00 0.00 74 1020.7
20260904063103 71 144 0.0 2.0 0.00 0.00 0.00 76 1020.7
20260904062603 70 144 0.0 2.0 0.00 0.00 0.00 78 1020.7
20260904061604 68 144 0.0 2.0 0.00 0.00 0.00 79 1020.7
20260904061104 68 144 1.0 1.0 0.00 0.00 0.00 79 1020.7
20260904060605 68 144 1.0 0.0 0.00 0.00 0.00 80 1020.5
20260904060104 67 144 2.0 1.0 0.00 0.00 0.00 81 1020.5
20260904055604 67 144 2.0 2.0 0.00 0.00 0.00 81 1020.5
20260904055104 67 144 2.0 2.0 0.00 0.00 0.00 81 1020.3
20260904054104 66 144 2.0 2.0 0.00 0.00 0.00 81 1020.3
20260904053604 66 144 2.0 2.0 0.00 0.00 0.00 82 1020.3
20260904053104 65 144 2.0 2.0 0.00 0.00 0.00 82 1020.3
20260904052104 65 144 2.0 2.0 0.00 0.00 0.00 82 1020.2
20260904051604 65 144 2.0 3.0 0.00 0.00 0.00 82 1020.2
20260904051104 65 134 2.0 2.0 0.00 0.00 0.00 82 1020.2
20260904050604 65 134 2.0 2.0 0.00 0.00 0.00 82 1020.3
20260904050104 65 134 1.0 2.0 0.00 0.00 0.00 82 1020.3
20260904045604 65 134 0.0 2.0 0.00 0.00 0.00 82 1020.3
20260904045104 65 134 0.0 2.0 0.00 0.00 0.00 82 1020.4
20260904044105 65 134 1.0 2.0 0.00 0.00 0.00 83 1020.4
20260904043604 65 134 1.0 2.0 0.00 0.00 0.00 83 1020.3
20260904043104 65 134 0.0 2.0 0.00 0.00 0.00 83 1020.3
20260904042604 65 134 0.0 2.0 0.00 0.00 0.00 83 1020.3
20260904041604 65 134 0.0 0.0 0.00 0.00 0.00 83 1020.3
20260904041104 65 134 0.0 0.0 0.00 0.00 0.00 83 1020.3
20260904040103 65 134 0.0 2.0 0.00 0.00 0.00 83 1020.1
20260904035604 66 134 0.0 0.0 0.00 0.00 0.00 83 1020.1
20260904035104 66 134 0.0 2.0 0.00 0.00 0.00 83 1020.0
20260904034604 66 134 0.0 2.0 0.00 0.00 0.00 83 1020.0
20260904034104 66 134 0.0 2.0 0.00 0.00 0.00 83 1020.0
20260904033604 66 134 0.0 2.0 0.00 0.00 0.00 83 1019.9
20260904032604 66 134 0.0 2.0 0.00 0.00 0.00 82 1019.9
20260904032104 67 134 0.0 0.0 0.00 0.00 0.00 82 1019.9
20260904031604 67 134 0.0 2.0 0.00 0.00 0.00 81 1019.9
20260904031104 67 134 0.0 2.0 0.00 0.00 0.00 81 1019.9
20260904030103 67 134 0.0 0.0 0.00 0.00 0.00 81 1019.8
20260904025604 67 134 0.0 2.0 0.00 0.00 0.00 80 1019.8
20260904024604 68 134 0.0 0.0 0.00 0.00 0.00 80 1019.8
20260904024104 68 134 0.0 0.0 0.00 0.00 0.00 79 1019.8
20260904023604 68 134 0.0 0.0 0.00 0.00 0.00 79 1019.7
20260904023104 68 134 0.0 0.0 0.00 0.00 0.00 79 1019.7
20260904022104 68 134 2.0 2.0 0.00 0.00 0.00 79 1019.7
20260904021604 68 134 2.0 2.0 0.00 0.00 0.00 79 1019.7
20260904021103 68 134 1.0 2.0 0.00 0.00 0.00 79 1019.7
20260904020604 69 134 1.0 2.0 0.00 0.00 0.00 78 1019.8
20260904015603 69 134 0.0 2.0 0.00 0.00 0.00 78 1019.8
20260904015104 69 134 1.0 2.0 0.00 0.00 0.00 77 1019.9
20260904014604 70 134 1.0 2.0 0.00 0.00 0.00 77 1019.9
20260904013104 70 134 2.0 2.0 0.00 0.00 0.00 75 1019.8
20260904012604 71 134 2.0 3.0 0.00 0.00 0.00 74 1019.8
20260904012103 71 141 2.0 5.0 0.00 0.00 0.00 74 1019.9
20260904011604 70 136 1.0 5.0 0.00 0.00 0.00 75 1019.9
20260904011104 70 127 2.0 3.0 0.00 0.00 0.00 75 1019.9
20260904010604 70 126 2.0 3.0 0.00 0.00 0.00 76 1020.0
20260904010104 70 126 1.0 5.0 0.00 0.00 0.00 76 1020.0
20260904005604 70 139 1.0 3.0 0.00 0.00 0.00 77 1020.0
20260904005104 70 142 0.0 3.0 0.00 0.00 0.00 78 1020.1
20260904004603 70 161 0.0 2.0 0.00 0.00 0.00 78 1020.1
20260904004104 70 161 0.0 2.0 0.00 0.00 0.00 78 1020.1
20260904003604 70 161 0.0 1.0 0.00 0.00 0.00 78 1020.1
20260904003104 70 161 0.0 0.0 0.00 0.00 0.00 78 1020.1
20260904001604 70 161 0.0 2.0 0.00 0.00 0.00 77 1020.0
20260904001104 71 161 0.0 2.0 0.00 0.00 0.00 77 1020.0
20260904000604 71 161 0.0 1.0 0.00 0.00 0.00 77 1020.0
20260904000104 71 161 0.0 2.0 0.00 0.00 0.00 77 1020.0
20260903235604 71 161 0.0 0.0 0.00 0.00 0.00 77 1020.0
20260903235104 71 161 0.0 2.0 0.00 0.00 0.00 76 1020.0
20260903234604 71 161 0.0 1.0 0.00 0.00 0.00 76 1020.0
20260903234104 71 161 0.0 1.0 0.00 0.00 0.00 75 1020.0
20260903233604 72 161 0.0 2.0 0.00 0.00 0.00 75 1020.0
20260903233104 72 161 0.0 2.0 0.00 0.00 0.00 75 1020.0
20260903232604 72 161 0.0 2.0 0.00 0.00 0.00 75 1020.0
20260903232103 72 161 0.0 2.0 0.00 0.00 0.00 75 1019.9
20260903231604 72 161 0.0 0.0 0.00 0.00 0.00 75 1019.9
20260903231104 72 161 1.0 2.0 0.00 0.00 0.00 75 1019.9
20260903230604 72 161 1.0 2.0 0.00 0.00 0.00 75 1019.8
20260903230104 72 161 2.0 2.0 0.00 0.00 0.00 75 1019.8
20260903225604 72 161 2.0 3.0 0.00 0.00 0.00 75 1019.8
20260903225103 72 150 1.0 3.0 0.00 0.00 0.00 76 1019.9
20260903224604 72 139 1.0 3.0 0.00 0.00 0.00 76 1019.9
20260903223605 72 99 1.0 2.0 0.00 0.00 0.00 76 1019.8
20260903223104 73 99 2.0 3.0 0.00 0.00 0.00 75 1019.8
20260903222604 73 107 2.0 2.0 0.00 0.00 0.00 75 1019.8
20260903222104 73 107 1.0 3.0 0.00 0.00 0.00 75 1019.8
20260903221605 73 125 1.0 3.0 0.00 0.00 0.00 75 1019.8
20260903221104 73 142 1.0 3.0 0.00 0.00 0.00 74 1019.8
20260903220603 73 154 1.0 2.0 0.00 0.00 0.00 74 1019.8
20260903220104 73 154 1.0 2.0 0.00 0.00 0.00 73 1019.8
20260903215603 73 154 1.0 2.0 0.00 0.00 0.00 73 1019.8
20260903215104 74 154 1.0 2.0 0.00 0.00 0.00 73 1019.9
20260903214104 74 154 1.0 2.0 0.00 0.00 0.00 71 1019.9
20260903213604 74 154 1.0 3.0 0.00 0.00 0.00 71 1019.8
20260903213104 75 156 1.0 3.0 0.00 0.00 0.00 70 1019.8
20260903212604 75 130 1.0 2.0 0.00 0.00 0.00 70 1019.8
20260903211604 75 130 1.0 2.0 0.00 0.00 0.00 70 1019.8
20260903211104 75 126 1.0 2.0 0.00 0.00 0.00 69 1019.8
20260903210106 76 125 0.0 2.0 0.00 0.00 0.00 69 1019.7
20260903205605 76 125 0.0 2.0 0.00 0.00 0.00 69 1019.7
20260903205106 76 125 1.0 2.0 0.00 0.00 0.00 69 1019.7
20260903204604 76 125 1.0 2.0 0.00 0.00 0.00 69 1019.7
20260903204104 76 125 0.0 2.0 0.00 0.00 0.00 69 1019.7
20260903203604 76 125 0.0 3.0 0.00 0.00 0.00 68 1019.6
20260903202104 77 124 0.0 2.0 0.00 0.00 0.00 67 1019.6
20260903201604 77 124 0.0 2.0 0.00 0.00 0.00 66 1019.6
20260903200604 77 124 1.0 2.0 0.00 0.00 0.00 66 1019.6
20260903195604 77 124 2.0 3.0 0.00 0.00 0.00 65 1019.6
20260903195105 77 118 2.0 3.0 0.00 0.00 0.00 65 1019.5
20260903194605 77 119 2.0 3.0 0.00 0.00 0.00 65 1019.5
20260903194104 78 121 2.0 2.0 0.00 0.00 0.00 65 1019.5
20260903193605 78 121 2.0 5.0 0.00 0.00 0.00 64 1019.3
20260903193104 78 120 2.0 6.0 0.00 0.00 0.00 64 1019.3
20260903192604 78 116 2.0 3.0 0.00 0.00 0.00 64 1019.3
20260903192104 78 108 2.0 5.0 0.00 0.00 0.00 63 1019.2
20260903191604 79 119 2.0 3.0 0.00 0.00 0.00 62 1019.2
20260903191104 79 119 2.0 3.0 0.00 0.00 0.00 62 1019.2
20260903190604 79 119 2.0 3.0 0.00 0.00 0.00 61 1019.0
20260903190104 80 103 2.0 5.0 0.00 0.00 0.00 60 1019.0
20260903185604 80 102 2.0 3.0 0.00 0.00 0.00 59 1019.0
20260903185104 81 106 2.0 5.0 0.00 0.00 0.00 58 1018.8
20260903184604 81 104 2.0 2.0 0.00 0.00 0.00 58 1018.8
20260903184104 81 104 2.0 3.0 0.00 0.00 0.00 57 1018.8
20260903183605 82 104 2.0 6.0 0.00 0.00 0.00 56 1018.6
20260903183105 82 108 2.0 5.0 0.00 0.00 0.00 56 1018.6
20260903182104 83 103 2.0 3.0 0.00 0.00 0.00 55 1018.7
20260903181604 83 108 2.0 3.0 0.00 0.00 0.00 54 1018.7
20260903180105 85 166 2.0 5.0 0.00 0.00 0.00 52 1018.5
20260903175603 85 158 2.0 3.0 0.00 0.00 0.00 52 1018.5
20260903175104 85 164 2.0 5.0 0.00 0.00 0.00 51 1018.5
20260903174604 86 163 2.0 5.0 0.00 0.00 0.00 50 1018.5
20260903174103 86 161 1.0 3.0 0.00 0.00 0.00 49 1018.5
20260903173604 86 162 0.0 5.0 0.00 0.00 0.00 47 1018.4
20260903173103 87 352 0.0 2.0 0.00 0.00 0.00 42 1018.4
20260903172104 88 352 0.0 0.0 0.00 0.00 0.00 42 1018.4
20260903171604 88 352 0.0 0.0 0.00 0.00 0.00 40 1018.4
20260903170604 88 352 0.0 1.0 0.00 0.00 0.00 38 1018.3
20260903165603 88 352 0.0 1.0 0.00 0.00 0.00 38 1018.3
20260903165104 89 352 0.0 0.0 0.00 0.00 0.00 38 1018.2
20260903164604 89 352 0.0 2.0 0.00 0.00 0.00 39 1018.2
20260903164103 89 352 1.0 1.0 0.00 0.00 0.00 39 1018.2
20260903163104 90 352 1.0 3.0 0.00 0.00 0.00 37 1018.1
20260903162604 90 352 1.0 3.0 0.00 0.00 0.00 37 1018.1
20260903162104 90 353 2.0 3.0 0.00 0.00 0.00 36 1018.1
20260903161604 91 352 2.0 3.0 0.00 0.00 0.00 37 1018.1
20260903161105 91 355 2.0 5.0 0.00 0.00 0.00 36 1018.1
20260903160605 92 14 2.0 2.0 0.00 0.00 0.00 36 1018.2
20260903155604 93 5 2.0 5.0 0.00 0.00 0.00 35 1018.2
20260903154604 93 353 2.0 5.0 0.00 0.00 0.00 35 1018.3
20260903154104 93 353 1.0 5.0 0.00 0.00 0.00 35 1018.3
20260903153604 93 29 1.0 2.0 0.00 0.00 0.00 36 1018.4
20260903153104 92 34 2.0 2.0 0.00 0.00 0.00 36 1018.4
20260903152604 93 34 2.0 3.0 0.00 0.00 0.00 36 1018.4
20260903152104 92 321 2.0 3.0 0.00 0.00 0.00 36 1018.4
20260903151604 92 352 2.0 5.0 0.00 0.00 0.00 37 1018.4
20260903151105 92 172 2.0 3.0 0.00 0.00 0.00 37 1018.4
20260903150105 92 147 2.0 5.0 0.00 0.00 0.00 37 1018.6
20260903145610 92 344 2.0 5.0 0.00 0.00 0.00 36 1018.6
20260903145105 93 338 2.0 7.0 0.00 0.00 0.00 37 1018.7
20260903144604 92 8 2.0 7.0 0.00 0.00 0.00 36 1018.7
20260903144104 92 2 2.0 3.0 0.00 0.00 0.00 38 1018.7
20260903142104 92 10 2.0 5.0 0.00 0.00 0.00 39 1019.1
20260903141604 92 291 2.0 5.0 0.00 0.00 0.00 38 1019.1
20260903141105 92 340 2.0 3.0 0.00 0.00 0.00 38 1019.1
20260903140605 92 30 2.0 3.0 0.00 0.00 0.00 39 1019.3
20260903140104 92 7 2.0 5.0 0.00 0.00 0.00 39 1019.3